Regional Weather Roundup
Issued by NWS

Home | Current Version | Previous Version | Graphics & Text | Print | Product List | Glossary On
Versions: 1 2 3 4 5 6 7 8 9 10 11 12 13 14 15 16 17 18 19 20 21 22 23 24 25 26 27 28 29 30 31 32 33 34 35 36 37 38 39 40 41 42 43 44 45 46 47 48 49 50
000
ASUS43 KLOT 240603
RWRIL

ILLINOIS REGIONAL WEATHER ROUNDUP
NATIONAL WEATHER SERVICE CHICAGO/ROMEOVILLE IL
1200 AM CST TUE JAN 24 2017

NOTE: "FAIR" INDICATES FEW OR NO CLOUDS BELOW 12,000 FEET WITH NO
SIGNIFICANT WEATHER AND/OR OBSTRUCTIONS TO VISIBILITY.

* THESE STATIONS ARE NOT UNDER NWS QUALITY CONTROL. THEY ALSO MAY NOT
  REPORT WEATHER SUCH AS PRECIPITATION OR FOG.

ILZ001-002-007-009-015-016-024-240700-
NORTHWEST ILLINOIS

CITY           SKY/WX    TMP DP  RH WIND       PRES   REMARKS
MOLINE         CLOUDY    35  31  85 W5        29.86S WCI  31
6HR MIN TEMP:  35; 6HR MAX TEMP:  39;

STERLING*      CLOUDY    36  34  92 W3        29.85S
SAVANNA*       CLOUDY    35  33  93 CALM      29.85F
$$

ILZ003-004-008-010-011-017-018-240700-
NORTH CENTRAL ILLINOIS

CITY           SKY/WX    TMP DP  RH WIND       PRES   REMARKS
ROCKFORD       CLOUDY    37  33  85 NW7       29.85R WCI  32
6HR MIN TEMP:  37; 6HR MAX TEMP:  40;

FREEPORT*      CLOUDY    34  32  91 CALM      29.86S
ROCHELLE*      CLOUDY    35  34  94 NW3       29.85R
DE KALB*       CLOUDY    36  34  94 NW5       29.83S WCI  32
PERU*          CLOUDY    36  33  90 W7        29.85S WCI  30
$$

ILZ005-006-012>014-019>023-240700-
NORTHEAST ILLINOIS

CITY           SKY/WX    TMP DP  RH WIND       PRES   REMARKS
CHICAGO-OHARE  CLOUDY    38  34  85 N7        29.80F WCI  33
6HR MIN TEMP:  36; 6HR MAX TEMP:  41;

CHICAGO-MIDWAY CLOUDY    39  33  79 NW8       29.81S WCI  33
6HR MIN TEMP:  39; 6HR MAX TEMP:  43;

AURORA         CLOUDY    38  34  85 N8        29.83R WCI  32
6HR MIN TEMP:  35; 6HR MAX TEMP:  39;

LANSING*       CLOUDY    39  37  90 W5        29.81S
JOLIET*        CLOUDY    40  38  92 W3        29.83S
WAUKEGAN       CLOUDY    37  35  92 NW5       29.79F WCI  33
6HR MIN TEMP:  37; 6HR MAX TEMP:  40;

DUPAGE AIRPORT CLOUDY    38  33  82 NW9       29.81S WCI  31
6HR MIN TEMP:  38; 6HR MAX TEMP:  40;

WHEELING       CLOUDY    38  34  85 NW5       29.82S WCI  34
6HR MIN TEMP:  35; 6HR MAX TEMP:  41;

MORRIS*        CLOUDY    37  35  92 CALM      29.82S
ROMEOVILLE*    CLOUDY    39  37  94 CALM      29.82R
NORTHERLY ISL    N/A     39  33  79 NW8         N/A  WCI  33
$$

LMZ740>746-240700-
SOUTHERN LAKE MICHIGAN

STATION/POSITION SKY/WX   TEMP    WIND        PRES    VSBY  WAVE
                          AIR SEA DIR/SP/G                  HT/PER
                          (F)     (DEG/KT/KT) (MB)    (MI)  (FT/S)
HARRISON CRIB              39     320/ 15/ 16   N/A
BURNHAM HARBOR             38     310/  5/  9   N/A
CALUMET HARBOR             37     330/  4/  6 1008.7F
BURNS HARBOR               36     330/  8/  9 1009.5F
MICHIGAN CITY              37     290/ 13/ 14   N/A
$$

ILZ025>027-034>036-040-047-049-050-058-095>099-240700-
WEST-CENTRAL ILLINOIS

CITY           SKY/WX    TMP DP  RH WIND       PRES   REMARKS
QUINCY         CLOUDY    35  30  82 CALM      29.87S
GALESBURG*     CLOUDY    33  33 100 W6        29.86F WCI  27
MACOMB*        CLOUDY    35  32  91 W3        29.90S
JACKSONVILLE*  CLOUDY    37  32  83 CALM      29.88F
PITTSFIELD*    CLOUDY    36  32  85 CALM      29.90R
$$

ILZ028>032-037-038-041>044-048-051>054-059>061-240700-
CENTRAL ILLINOIS

CITY           SKY/WX    TMP DP  RH WIND       PRES   REMARKS
BLOOMINGTON    CLOUDY    38  35  89 W7        29.84S WCI  33
DECATUR        CLOUDY    40  35  83 NW3       29.85S
PEORIA         CLOUDY    36  34  92 VRB5      29.86S WCI  32
6HR MIN TEMP:  36; 6HR MAX TEMP:  40;

LACON*         CLOUDY    37  36  96 CALM      29.84F
LINCOLN*       CLOUDY    39  37  93 CALM      29.86R
SPRINGFIELD    CLOUDY    39  35  86 NW6       29.87S WCI  35
6HR MIN TEMP:  39; 6HR MAX TEMP:  42;

TAYLORVILLE    CLOUDY    38  34  85 W6        29.87S WCI  33
6HR MIN TEMP:  38; 6HR MAX TEMP:  40;

$$

ILZ033-039-045-046-055>057-062-063-240700-
EAST-CENTRAL ILLINOIS

CITY           SKY/WX    TMP DP  RH WIND       PRES   REMARKS
CHAMPAIGN      CLOUDY    39  36  89 NW5       29.83S
MATTOON        CLOUDY    39  36  89 NW7       29.84S WCI  34
PARIS*         CLOUDY    39  36  87 NW6       29.83S
$$

ILZ079-100>102-240700-
SOUTHWEST ILLINOIS

CITY           SKY/WX    TMP DP  RH WIND       PRES   REMARKS
ALTON          CLOUDY    38  33  82 W3        29.89S
BELLEVILLE     CLOUDY    40  34  80 CALM      29.88S
CAHOKIA*       CLOUDY    41  32  70 N5        29.89R
SPARTA*        CLOUDY    39  32  76 N3        29.89F
$$

ILZ064>066-069>071-074>076-080>082-084>086-088>090-092>094-240700-
SOUTH-CENTRAL ILLINOIS

CITY           SKY/WX    TMP DP  RH WIND       PRES   REMARKS
CARBONDALE     CLOUDY    40  35  83 N6        29.88S
6HR MIN TEMP:  40; 6HR MAX TEMP:  42;

CAIRO*         PTCLDY    35  33  92 NW3       29.88F
EFFINGHAM*     CLOUDY    41  37  86 NW6       29.88S
MARION         CLOUDY    41  36  81 N5        29.89S
MT. VERNON     CLOUDY    40  33  76 N7        29.88S
CENTRALIA*     CLOUDY    40  36  84 NW5       29.87S
SALEM*         CLOUDY    41  35  77 N3        29.87F
$$

ILZ067-068-072-073-078-083-087-091-240700-
SOUTHEAST ILLINOIS

CITY           SKY/WX    TMP DP  RH WIND       PRES   REMARKS
LAWRENCEVILLE  CLOUDY    40  36  86 NW9       29.85S
FLORA*         CLOUDY    42  36  79 NW5       29.87S
HARRISBURG*    CLOUDY    41  35  80 NW8       29.88S
ROBINSON*      CLOUDY    39  36  87 W7        29.86S WCI  34
CARMI*         CLOUDY    41  35  79 N10       29.86S
$$

ABBREVIATIONS USED IN REMARKS
   TC - TEMPERATURE IN CELSIUS
  WCI - WIND CHILL INDEX
   HX - HEAT INDEX
  VSB - VISIBILITY
$$





USA.gov is the U.S. government's official web portal to all federal, state and local government web resources and services.